User: anonymous   Login
Location: Unspecified
(0.0000°N, 0.0000°E)
Time: 22:14:36
(UTC+00:00)
Language:

HEATHSAT - Orbit

View from above orbital plane
View from above orbital plane
View from above satellite
View from above satellite

Ground track
Ground track

The orbit data is extracted from the following two-line orbital elements,

1 22827U 93061E   24151.15073446  .00000296  00000-0  12738-3 0  9994
2 22827  98.7394 207.0416 0009942  70.3413 348.2108 14.31911192601011
Epoch (UTC): 30 May 2024 03:37:03
Eccentricity: 0.0009942
inclination: 98.7394°
perigee height: 778 km
apogee height: 792 km
right ascension of ascending node: 207.0416°
argument of perigee: 70.3413°
revolutions per day: 14.31911192
mean anomaly at epoch: 348.2108°
orbit number at epoch: 60101

The dashed part of the orbit path shows where the satellite is in the earth's shadow,  

DLR